DateTimeUTC,F1_A11,F1_S11,BsB_S11,BsG_S11,BsR_S11,BbsB_S11,BbsG_S11,BbsR_S11,BaB_A11,BaG_A11,BaR_A11,Tu_S11,T_S11,Uu_S11,U_S11,P_S11,T1_A11
2021-08-13T11:00:00Z,00000200,20000000,,,,,,,0000.21,0000.04,0000.14,18.1,24.8,06.6,04.4,0674.4,30.8
2021-08-13T11:01:00Z,00000200,20000000,,,,,,,-000.14,-000.10,0000.08,18.1,24.9,06.7,04.4,0674.4,30.9
2021-08-13T11:02:00Z,00000200,20000000,,,,,,,0000.13,0000.12,-000.14,18.1,24.9,06.7,04.4,0674.4,30.9
2021-08-13T11:03:00Z,00000200,60000000,,,,,,,0000.64,0000.44,0000.52,18.1,24.9,06.7,04.4,0674.4,30.9
2021-08-13T11:04:00Z,00000200,40000000,0003.01,0002.21,0001.52,0000.75,0000.31,-000.01,0001.02,0000.65,0000.70,18.2,24.7,06.9,04.7,0675.3,30.8
2021-08-13T11:05:00Z,00000200,00000000,0003.48,0002.48,0001.98,0000.33,0000.50,0000.59,0000.34,0000.60,0000.23,18.3,24.6,07.0,04.7,0675.3,30.8
2021-08-13T11:06:00Z,00000200,00000000,0002.56,0002.14,0001.74,0000.33,0000.45,0000.24,0000.89,0000.67,0000.51,18.3,24.6,07.1,04.8,0675.3,30.8
2021-08-13T11:07:00Z,00000200,00000000,0003.61,0002.71,0001.66,0000.31,0000.56,0000.28,0000.84,0001.02,0000.62,18.3,24.6,07.0,04.7,0675.3,30.8
2021-08-13T11:08:00Z,00000200,00000000,0002.54,0002.45,0001.77,0000.46,0000.61,0000.01,0000.73,0000.54,0000.62,18.2,24.6,07.1,04.9,0675.3,30.8
2021-08-13T11:09:00Z,00000200,00000000,0003.49,0002.45,0001.58,0000.51,0000.65,0000.32,0000.85,0000.67,0000.30,18.2,24.5,07.1,04.8,0675.3,30.8
2021-08-13T11:10:00Z,00000200,00000000,0003.23,0002.75,0001.80,0000.19,0000.34,0000.30,0000.60,0000.62,0000.73,18.2,24.5,07.1,04.9,0675.3,30.8
2021-08-13T11:11:00Z,00000200,00000000,0003.39,0002.72,0001.73,0000.42,0000.56,0000.14,0000.59,0000.85,0000.61,18.2,24.5,07.2,04.9,0675.3,30.8
2021-08-13T11:12:00Z,00000200,00000000,0003.02,0002.71,0001.57,0000.37,0000.83,0000.02,0000.96,0000.80,0000.58,18.2,24.5,07.2,04.9,0675.3,30.8
2021-08-13T11:13:00Z,00000200,00000000,0002.71,0002.97,0001.86,0000.15,0000.52,0000.08,0001.17,0000.71,0000.46,18.3,24.5,07.2,04.9,0675.3,30.8
2021-08-13T11:14:00Z,00000200,00000000,0003.67,0002.75,0001.80,0000.56,0000.59,0000.07,0000.36,0000.70,0000.72,18.3,24.6,07.3,05.0,0675.3,30.9
2021-08-13T11:15:00Z,00000200,00000000,0003.77,0002.67,0001.53,0000.17,0000.53,-000.29,0001.18,0000.61,0000.61,18.4,24.6,07.2,05.0,0675.3,30.8
2021-08-13T11:16:00Z,00000200,00000000,0003.13,0002.83,0002.07,0000.32,0000.41,0000.39,0000.47,0000.66,0000.77,18.4,24.6,07.4,05.0,0675.3,30.8
2021-08-13T11:17:00Z,00000200,00000000,0003.74,0002.80,0001.92,0000.26,0000.29,0000.24,0000.95,0000.72,0000.04,18.4,24.6,07.4,05.1,0675.3,30.9
2021-08-13T11:18:00Z,00000200,00000000,0003.79,0002.99,0001.66,0000.87,0000.66,0000.16,0000.68,0000.88,0000.51,18.4,24.6,07.4,05.1,0675.3,30.9
2021-08-13T11:19:00Z,00000200,00000000,0004.05,0002.53,0001.99,0000.12,0000.28,0000.26,0001.04,0000.73,0001.12,18.4,24.6,07.3,05.0,0675.3,30.8
2021-08-13T11:20:00Z,00000200,00000000,0003.35,0002.49,0001.40,0000.41,0000.49,0000.38,0000.52,0000.84,0000.26,18.4,24.6,07.3,05.0,0675.3,30.8
2021-08-13T11:21:00Z,00000200,00000000,0003.77,0002.72,0001.73,0000.52,0000.60,0000.09,0000.82,0000.38,0000.68,18.3,24.6,07.4,05.0,0675.3,30.8
2021-08-13T11:22:00Z,00000200,00000000,0003.63,0002.84,0001.49,0000.60,0000.43,0000.00,0001.12,0001.10,0000.65,18.3,24.6,07.5,05.1,0675.3,30.8
2021-08-13T11:23:00Z,00000200,00000000,0004.03,0003.09,0001.77,0000.63,0000.68,0000.25,0000.72,0000.56,0000.77,18.3,24.5,07.4,05.0,0675.3,30.8
2021-08-13T11:24:00Z,00000200,00000000,0003.16,0002.72,0001.86,0000.67,0000.87,0000.38,0000.65,0000.87,0000.37,18.3,24.5,07.5,05.1,0675.3,30.8
2021-08-13T11:25:00Z,00000200,00000000,0003.73,0002.90,0001.75,0000.61,0000.66,0000.15,0000.54,0000.61,0000.43,18.3,24.5,07.4,05.1,0675.3,30.8
2021-08-13T11:26:00Z,00000200,00000000,0003.07,0002.99,0001.96,-000.01,0000.44,0000.46,0001.01,0001.05,0000.94,18.3,24.5,07.5,05.1,0675.3,30.8
2021-08-13T11:27:00Z,00000200,00000000,0003.29,0003.11,0001.79,0000.75,0000.54,0000.29,0000.69,0000.43,0000.17,18.3,24.5,07.5,05.1,0675.3,30.8
2021-08-13T11:28:00Z,00000200,00000000,0003.82,0002.13,0001.80,0000.25,0000.57,0000.22,0000.98,0000.75,0000.66,18.2,24.5,07.4,05.1,0675.3,30.8
2021-08-13T11:29:00Z,00000200,00000000,0003.83,0002.78,0001.77,0000.15,0000.61,0000.10,0000.50,0000.70,0000.47,18.2,24.5,07.4,05.1,0675.3,30.8
2021-08-13T11:30:00Z,00000200,00000000,0003.71,0002.96,0001.86,0000.86,0000.33,-000.16,0001.08,0000.90,0000.88,18.2,24.5,07.5,05.1,0675.3,30.8
2021-08-13T11:31:00Z,00000200,00000000,0003.24,0002.97,0001.80,-000.09,0000.33,0000.13,0000.89,0000.35,0000.32,18.2,24.4,07.6,05.2,0675.3,30.8
2021-08-13T11:32:00Z,00000200,00000000,0003.87,0002.41,0001.61,0000.38,0000.18,0000.42,0000.91,0001.38,0000.84,18.2,24.4,07.5,05.1,0675.3,30.8
2021-08-13T11:33:00Z,00000200,00000000,0004.27,0002.74,0001.85,0000.14,0000.54,0000.08,0000.44,0000.62,0000.41,18.2,24.4,07.6,05.2,0675.3,30.8
2021-08-13T11:34:00Z,00000200,00000000,0003.89,0002.58,0001.99,0000.43,0000.65,0000.45,0000.75,0000.45,0000.41,18.2,24.4,07.6,05.2,0675.3,30.8
2021-08-13T11:35:00Z,00000200,00000000,0003.43,0002.78,0001.91,0000.54,0000.60,0000.41,0000.81,0000.92,0000.70,18.2,24.4,07.7,05.2,0675.3,30.8
2021-08-13T11:36:00Z,00000200,00000000,0003.72,0002.57,0001.87,0000.14,0000.18,0000.14,0001.08,0000.77,0000.76,18.2,24.4,07.7,05.3,0675.3,30.8
2021-08-13T11:37:00Z,00000200,00000000,0004.30,0002.84,0001.70,0000.82,0000.68,0000.27,0001.04,0000.92,0000.38,18.2,24.4,07.7,05.3,0675.3,30.8
2021-08-13T11:38:00Z,00000200,00000000,0003.75,0003.05,0001.90,0000.10,0000.58,0000.21,0000.77,0000.64,0001.14,18.2,24.4,07.8,05.3,0675.3,30.8
2021-08-13T11:39:00Z,00000200,00000000,0004.46,0003.23,0001.98,0000.26,0000.45,0000.13,0001.22,0001.00,0000.53,18.2,24.4,07.8,05.3,0675.3,30.8
2021-08-13T11:40:00Z,00000200,00000000,0003.67,0002.99,0001.95,0000.61,0000.68,0000.25,0000.67,0000.63,0000.98,18.2,24.4,07.8,05.3,0675.3,30.8
2021-08-13T11:41:00Z,00000200,00000000,0004.08,0003.07,0001.83,0000.85,0000.52,0000.25,0000.87,0001.26,-000.01,18.2,24.4,07.7,05.3,0675.3,30.8
2021-08-13T11:42:00Z,00000200,00000000,0004.26,0003.12,0002.10,0000.33,0000.50,0000.38,0001.00,0000.57,0001.06,18.2,24.4,07.7,05.3,0675.3,30.8
2021-08-13T11:43:00Z,00000200,00000000,0003.74,0002.95,0002.20,0000.28,0000.53,0000.25,0000.95,0000.94,0000.57,18.3,24.4,07.7,05.3,0675.3,30.8
2021-08-13T11:44:00Z,00000200,00000000,0003.46,0003.22,0001.80,0000.64,0000.60,0000.46,0000.81,0001.00,0000.87,18.3,24.4,07.8,05.4,0675.3,30.8
2021-08-13T11:45:00Z,00000200,00000000,0004.30,0003.15,0001.99,0000.50,0000.74,0000.26,0000.93,0000.70,0000.55,18.4,24.5,07.7,05.3,0675.2,30.8
2021-08-13T11:46:00Z,00000200,00000000,0003.48,0003.02,0001.93,0000.16,0000.67,0000.46,0000.99,0001.15,0000.66,18.4,24.5,07.7,05.3,0675.2,30.9
2021-08-13T11:47:00Z,00000200,00000000,0003.64,0002.49,0001.92,-000.15,0000.39,0000.13,0000.78,0000.43,0000.73,18.5,24.6,07.7,05.3,0675.2,30.9
2021-08-13T11:48:00Z,00000200,00000000,0004.13,0003.21,0001.77,0000.72,0000.66,0000.08,0000.97,0000.80,0000.63,18.5,24.6,07.8,05.4,0675.3,30.9
2021-08-13T11:49:00Z,00000200,00000000,0004.35,0002.99,0001.80,0001.19,0000.63,-000.02,0000.80,0000.84,0000.35,18.5,24.6,07.7,05.3,0675.3,30.9
2021-08-13T11:50:00Z,00000200,00000000,0004.19,0003.20,0002.02,0000.41,0000.21,0000.36,0000.97,0000.87,0000.79,18.5,24.6,07.8,05.3,0675.3,30.9
2021-08-13T11:51:00Z,00000200,00000000,0003.61,0003.02,0001.72,0000.14,0000.68,0000.23,0000.85,0000.71,0000.61,18.5,24.6,07.7,05.3,0675.3,30.9
2021-08-13T11:52:00Z,00000200,00000000,0003.55,0002.64,0002.04,0000.83,0000.78,0000.24,0001.03,0001.03,0000.63,18.5,24.6,07.8,05.4,0675.3,30.9
2021-08-13T11:53:00Z,00000200,00000000,0004.65,0003.08,0002.19,0000.14,0000.59,0000.10,0000.80,0000.57,0000.71,18.5,24.6,07.8,05.3,0675.3,30.9
2021-08-13T11:54:00Z,00000200,00000000,0003.54,0002.76,0002.12,0000.03,0000.42,0000.08,0000.93,0001.11,0000.66,18.5,24.5,07.7,05.3,0675.3,30.9
2021-08-13T11:55:00Z,00000200,00000000,0003.58,0003.17,0002.15,0000.66,0000.65,0000.46,0001.08,0000.83,0000.70,18.5,24.6,07.8,05.4,0675.3,30.9
2021-08-13T11:56:00Z,00000200,00000000,0003.83,0002.27,0001.90,0000.45,0000.18,0000.08,0000.73,0000.65,0000.50,18.5,24.6,07.9,05.4,0675.4,30.9
2021-08-13T11:57:00Z,00000200,40000000,,,,,,,0000.10,0000.26,-000.01,18.5,24.6,08.3,05.7,0675.2,30.9
2021-08-13T11:58:00Z,00000200,60000000,,,,,,,0000.17,0000.08,0000.02,18.3,24.7,07.8,05.2,0674.4,30.9
2021-08-13T11:59:00Z,00000200,20000000,,,,,,,0000.15,0000.07,0000.20,18.3,24.8,07.7,05.2,0674.4,30.9
